Location: Zlin
(49.2330°N, 17.6670°E)
Time: 15:11:13
(UTC+02:00)

ISS - Visible Passes

Search period start: 17 July 2025 00:00
Search period end: 27 July 2025 00:00
Orbit: 415 x 418 km, 51.6° (Epoch: 17 July)

Date Brightness Start Highest point End Pass type
(mag) Time Alt. Az. Time Alt. Az. Time Alt. Az.
17 Jul -2.4 00:23:22 10° WNW 00:25:24 29° WSW 00:25:24 29° WSW visible
17 Jul -3.2 21:58:10 10° WNW 22:01:30 58° N 22:04:49 10° E visible
17 Jul -3.7 23:34:59 10° WNW 23:38:17 57° SSW 23:38:30 55° S visible
18 Jul -3.9 22:46:39 10° WNW 22:50:00 79° SSW 22:51:38 28° ESE visible
19 Jul -1.3 00:23:57 10° W 00:24:31 13° W 00:24:31 13° W visible
19 Jul -3.7 21:58:18 10° WNW 22:01:40 80° NNE 22:04:48 11° ESE visible
19 Jul -2.4 23:35:18 10° W 23:37:41 26° SW 23:37:41 26° SW visible
20 Jul -3.2 22:46:48 10° WNW 22:49:59 41° SSW 22:50:54 32° S visible
21 Jul -3.6 21:58:23 10° WNW 22:01:42 59° SSW 22:04:08 17° SE visible
21 Jul -1.3 23:36:17 10° WSW 23:37:01 12° WSW 23:37:01 12° WSW visible
22 Jul -2.0 22:47:14 10° W 22:49:45 20° SW 22:50:17 19° SSW visible
23 Jul -2.5 21:58:34 10° W 22:01:31 29° SW 22:03:35 16° SSE visible
25 Jul -1.3 21:59:21 10° WSW 22:01:08 14° SW 22:02:54 10° SSW visible
